Location: Bermeries
(50.2863°N, 3.7551°E)
Time: 13:21:28
(UTC+00:00)

Cosmos 968 Rocket - Pass Details

Date: 23 May 2024
Orbit: 738 x 769 km, 74.0° (Epoch: 18 June)

Event Time Altitude Azimuth Distance (km) Brightness Sun altitude
Exits shadow 02:02:15 16° 193° (SSW) 1,863 4.9 -12.6°
Maximum altitude 02:06:19 73° 111° (ESE) 778 3.6 -12.2°
Drops below altitude 10° 02:11:26 10° 27° (NNE) 2,272 7.4 -11.7°
Sets 02:13:49 0° 26° (NNE) 3,204 8.7 -11.5°
